Weather in Krasnyi Kut

Ukraine / Luhansk Region     48°12′09″N   38°47′24″E
temp.,
°C
wind,
m/s
gust,
m/s
humid.,
%
clouds,
%
prec.,
mm/h
press.,
hPa
HPBL,
m
22 may, sun
sun2200:00+15sw81697100 4.9 1003947
03:00+13wsw91794100 5.2 1002712
06:00+14w101587100 0.1 1001915
09:00+13w71290100 0.1 1001900
12:00+16w91263100 0.1 10001471
15:00+16wnw7116597 0.1 10001423
18:00+14w7117384 0.3 10001190
21:00+10wnw4108729 0.7 1001345
23 may, mon
mon2300:00+8wnw38959 0.0 1001238
03:00+9wnw2691100 0.0 1002225
06:00+9wnw249399 0.3 1003291
09:00+7ne4694100 1.5 1005338
12:00+7ne4791100 0.7 1006357
15:00+10ene3578100 0.7 1006438
18:00+12nne347599 0.3 1006692
21:00+8n368782 0.4 1008103
24 may, tue
tue2400:00+8nne2585100 0.0 1009115
03:00+8nne248396 0.0 101086
06:00+8n358672 0.0 1011157
09:00+11n446896 0.4 1012642
12:00+13n335083 0.3 10121851
15:00+13nnw445083 0.3 10121371
18:00+13nnw455932 0.0 10131582
21:00+9wnw22725 0.0 101511
25 may, wed
wed2500:00+8w227186 0.0 101623
03:00+8w247053 0.0 101789
06:00+8w26785 0.0 1017140
09:00+14wnw57635 0.0 1018769
12:00+17wnw565310 0.1 10171677
15:00+16wnw4763100 0.4 1017782
18:00+17w475818 0.0 10171115
21:00+12sw337353 0.0 101833
26 may, thu
thu2600:00+10wsw497818 0.0 1019148
03:00+12wsw5127095 0.0 1018304
06:00+12wsw51173100 0.0 1018263
09:00+15w586124 0.0 1018467
12:00+19sw785256 0.0 10171685
15:00+19sw995381 0.0 10162055
18:00+16ssw71162100 0.0 1015723
21:00+12ssw61178100 0.3 1015399